Location: Bydgoszcz
(53.1222°N, 17.9945°E)
Time: 20:39:11
(UTC+01:00)

Envisat - Visible Passes

Search period start: 21 March 2019 00:00
Search period end: 31 March 2019 00:00
Orbit: 764 x 766 km, 98.2° (Epoch: 21 March)

Date Brightness Start Highest point End Pass type
(mag) Time Alt. Az. Time Alt. Az. Time Alt. Az.
21 Mar 3.9 18:38:43 10° S 18:43:41 53° W 18:48:41 10° NNW visible
22 Mar 5.8 19:43:05 10° SW 19:46:32 18° W 19:50:01 10° NW visible
23 Mar 4.9 19:04:47 10° SSW 19:09:23 34° W 19:14:01 10° NNW visible
24 Mar 6.2 20:11:01 10° W 20:12:29 11° W 20:13:58 10° WNW visible
25 Mar 5.6 19:31:17 10° SW 19:35:11 22° W 19:39:06 10° NW visible
26 Mar 4.5 18:53:18 10° SSW 18:58:06 41° W 19:02:54 10° NNW visible
27 Mar 6.0 19:58:31 10° WSW 20:01:05 14° W 20:03:40 10° NW visible
28 Mar 5.3 19:19:36 10° SSW 19:23:50 26° W 19:28:07 10° NW visible
30 Mar 5.9 19:46:27 10° SW 19:49:42 17° W 19:52:57 10° NW visible
